Weather History for Tupelo, MS

Change the Weather History Date:

Monday, April 28, 2014

  Actual Average Record
Temperature  
Mean Temperature 72 °F 66 °F  
Max Temperature 79 °F 77 °F 91 °F (1981)
Min Temperature 64 °F 54 °F 35 °F (1973)
Degree Days  
Heating Degree Days 0 2  
Month to date heating degree days 138 142  
Since 1 July heating degree days 3428 2928  
Cooling Degree Days 6 3  
Month to date cooling degree days 30 53  
Year to date cooling degree days 30 69  
Growing Degree Days 22 (Base 50)    
Moisture  
Dew Point 66 °F    
Average Humidity 85    
Maximum Humidity 100    
Minimum Humidity 69    
Precipitation  
Precipitation 0.08 in 0.18 in 2.41 in (1991)
Month to date precipitation 5.56 4.43  
Year to date precipitation 14.73 18.69  
Snow  
Snow 0.00 in 0.00 in - ()
Month to date snowfall 0.0 0.0  
Since 1 July snowfall 0.5 2.1  
Snow Depth 0.00 in    
Sea Level Pressure  
Sea Level Pressure 29.65 in    
Wind  
Wind Speed 10 mph (SSW)    
Max Wind Speed 33 mph    
Max Gust Speed 45 mph    
Visibility 8 miles    
Events Fog , Rain , Thunderstorm    
T = Trace of Precipitation, MM = Missing Value Source: NWS Daily Summary

Daily Weather History Graph

Daily Weather History Graph

Search for Another Location

Airport:

Trip Planner

Search our weather history database for the weather conditions in past years. The results will help you decide how hot, cold, wet, or windy it might be!

Date:

Astronomy

Apr. 28, 2014 Rise Set
Actual Time 6:08 AM CDT 7:36 PM CDT
Civil Twilight 5:42 AM CDT 8:03 PM CDT
Nautical Twilight 5:10 AM CDT 8:35 PM CDT
Astronomical Twilight 4:36 AM CDT 9:08 PM CDT
Moon 5:44 AM CDT (4/28) 7:16 PM CDT (4/28)
Length of Visible Light 14h 21m
Length of Day
13h 28m
Waning Crescent, 0% of the Moon is Illuminated
Apr 28
Waning Crescent
Apr 29
New
May 6
First Quarter
May 14
Full
May 21
Last Quarter

Hourly Weather History & Observations

Time (CDT) Temp. Dew Point Humidity Pressure Visibility Wind Dir Wind Speed Gust Speed Precip Events Conditions
12:53 AM 71.6 °F 66.2 °F 83% 29.72 in 10.0 mi South 13.8 mph - N/A   Mostly Cloudy
1:53 AM 72.0 °F 66.0 °F 81% 29.68 in 10.0 mi South 12.7 mph - N/A   Mostly Cloudy
2:53 AM 71.1 °F 66.0 °F 84% 29.66 in 10.0 mi South 13.8 mph 21.9 mph N/A   Mostly Cloudy
3:05 AM 71.1 °F 66.0 °F 84% 29.67 in 10.0 mi South 13.8 mph - N/A   Mostly Cloudy
3:53 AM 70.0 °F 66.9 °F 90% 29.66 in 10.0 mi South 13.8 mph 21.9 mph 0.00 in   Overcast
4:45 AM 70.0 °F 66.9 °F 90% 29.66 in 10.0 mi SSW 15.0 mph - N/A   Scattered Clouds
4:53 AM 71.1 °F 66.9 °F 87% 29.66 in 10.0 mi SSW 12.7 mph - N/A   Mostly Cloudy
5:06 AM 71.1 °F 66.9 °F 87% 29.67 in 10.0 mi SSW 13.8 mph 23.0 mph N/A   Mostly Cloudy
5:45 AM 71.1 °F 66.9 °F 87% 29.68 in 10.0 mi South 16.1 mph - N/A   Mostly Cloudy
5:53 AM 71.1 °F 66.9 °F 87% 29.66 in 10.0 mi South 16.1 mph - N/A   Mostly Cloudy
6:53 AM 71.1 °F 66.9 °F 87% 29.68 in 9.0 mi South 12.7 mph 19.6 mph N/A   Mostly Cloudy
7:10 AM 72.0 °F 66.9 °F 84% 29.70 in 9.0 mi SSW 17.3 mph 21.9 mph N/A Thunderstorm Mostly Cloudy
7:30 AM 72.0 °F 68.0 °F 87% 29.70 in 9.0 mi SSW 12.7 mph 23.0 mph N/A   Mostly Cloudy
7:53 AM 73.0 °F 68.0 °F 84% 29.70 in 9.0 mi SSW 15.0 mph - N/A   Overcast
8:32 AM 73.0 °F 68.0 °F 84% 29.74 in 10.0 mi SSW 12.7 mph 21.9 mph N/A   Overcast
8:53 AM 73.0 °F 68.0 °F 84% 29.74 in 10.0 mi SW 18.4 mph 24.2 mph N/A   Overcast
9:19 AM 73.9 °F 68.0 °F 82% 29.74 in 10.0 mi SSW 13.8 mph - N/A   Overcast
9:53 AM 75.0 °F 68.0 °F 79% 29.72 in 10.0 mi SSW 19.6 mph 26.5 mph N/A   Overcast
10:53 AM 77.0 °F 66.0 °F 69% 29.71 in 10.0 mi SW 20.7 mph 32.2 mph N/A   Mostly Cloudy
11:53 AM 75.0 °F 66.0 °F 73% 29.62 in 9.0 mi SSW 26.5 mph 40.3 mph 0.00 in Rain Light Rain
12:53 PM 79.0 °F 66.9 °F 66% 29.65 in 10.0 mi SSW 18.4 mph 28.8 mph 0.00 in   Partly Cloudy
1:49 PM 77.0 °F 66.2 °F 69% 29.64 in 10.0 mi SW 11.5 mph - N/A Thunderstorm Scattered Clouds
1:53 PM 77.0 °F 66.0 °F 69% 29.62 in 10.0 mi SSW 9.2 mph - N/A Thunderstorm Scattered Clouds
2:04 PM 77.0 °F 66.0 °F 69% 29.63 in 10.0 mi SW 8.1 mph - N/A   Mostly Cloudy
2:16 PM 77.0 °F 66.0 °F 69% 29.62 in 10.0 mi Calm Calm - N/A Thunderstorm Overcast
2:27 PM 75.9 °F 66.9 °F 74% 29.62 in 10.0 mi ENE 6.9 mph - N/A Thunderstorm Thunderstorm
5:53 PM 68.0 °F 64.9 °F 90% 29.54 in 9.0 mi Calm Calm - 0.00 in Rain Light Rain
6:05 PM 66.9 °F 64.9 °F 93% 29.55 in 9.0 mi SSW 3.5 mph - 0.00 in Thunderstorm Thunderstorm
6:40 PM 68.0 °F 64.9 °F 90% 29.56 in 10.0 mi WSW 5.8 mph - 0.01 in Thunderstorm Overcast
6:53 PM 68.0 °F 64.9 °F 90% 29.55 in 10.0 mi SSW 5.8 mph - 0.01 in   Mostly Cloudy
7:53 PM 68.0 °F 66.0 °F 93% 29.56 in 10.0 mi SW 3.5 mph - 0.06 in   Overcast
8:53 PM 68.0 °F 66.0 °F 93% 29.59 in 9.0 mi WSW 3.5 mph - N/A   Mostly Cloudy
9:53 PM 66.2 °F 64.4 °F 94% 29.63 in 8.0 mi West 3.5 mph - N/A   Clear
10:48 PM 66.2 °F 64.4 °F 94% 29.65 in 5.0 mi SSW 4.6 mph - N/A   Scattered Clouds
10:53 PM 66.0 °F 64.0 °F 93% 29.65 in 5.0 mi SSW 3.5 mph - N/A   Scattered Clouds
11:09 PM 64.9 °F 64.0 °F 97% 29.66 in 1.0 mi Calm Calm - N/A   Overcast
11:24 PM 64.9 °F 64.0 °F 97% 29.66 in 0.5 mi WSW 3.5 mph - N/A Fog Fog
11:34 PM 66.0 °F 64.0 °F 93% 29.65 in 2.0 mi WSW 3.5 mph - N/A   Overcast
11:41 PM 66.0 °F 64.0 °F 93% 29.64 in 0.8 mi Calm Calm - N/A   Overcast
11:53 PM 64.9 °F 64.0 °F 97% 29.64 in 0.2 mi Calm Calm - N/A Fog Fog